QPF
0.00 0.00 0.00 0.00 0.00 0.00 0.00 0.00 0.00 0.00 0.01 0.01 0.00 0.00 0.00 0.00 0.00 0.00 0.01 0.01 0.01 0.01 0.01 0.01 0.01 0.01 0.02 0.02 0.02 0.02 0.02 0.01 0.02 0.02 0.02 0.03 0.03 0.03 0.03 0.03 0.03 0.05 0.05 0.05
0.00 0.00 0.00 0.00 0.00 0.00 0.00 0.00 0.00 0.00 0.00 0.00 0.00 0.00 0.00 0.00 0.00 0.01 0.01 0.01 0.01 0.01 0.01 0.01 0.02 0.02 0.01 0.01 0.01 0.00 0.01 0.01 0.02 0.03 0.04 0.04 0.04 0.03 0.03 0.02 0.02 0.03 0.03 0.03
0.00 0.00 0.00 0.00 0.00 0.00 0.00 0.00 0.00 0.00 0.00 0.00 0.00 0.00 0.01 0.00 0.00 0.01 0.01 0.01 0.01 0.02 0.02 0.03 0.05 0.07 0.04 0.02 0.01 0.01 0.01 0.02 0.05 0.06 0.08 0.08 0.08 0.06 0.05 0.04 0.03 0.02 0.02 0.03
0.00 0.00 0.00 0.00 0.00 0.00 0.00 0.00 0.00 0.00 0.00 0.00 0.00 0.00 0.00 0.00 0.00 0.01 0.01 0.01 0.02 0.01 0.01 0.03 0.06 0.08 0.07 0.04 0.02 0.01 0.01 0.02 0.03 0.05 0.07 0.08 0.09 0.08 0.06 0.05 0.04 0.02 0.02 0.02
0.00 0.00 0.00 0.00 0.00 0.00 0.00 0.00 0.00 0.00 0.00 0.00 0.00 0.00 0.01 0.01 0.00 0.01 0.01 0.01 0.01 0.01 0.01 0.03 0.07 0.12 0.11 0.04 0.02 0.01 0.02 0.03 0.04 0.05 0.05 0.05 0.06 0.07 0.06 0.05 0.04 0.03 0.03 0.03
0.00 0.00 0.00 0.00 0.00 0.00 0.00 0.00 0.00 0.00 0.00 0.00 0.00 0.01 0.03 0.03 0.01 0.00 0.01 0.01 0.01 0.01 0.01 0.02 0.03 0.04 0.06 0.05 0.04 0.03 0.03 0.03 0.03 0.04 0.05 0.05 0.05 0.05 0.05 0.05 0.05 0.05 0.05 0.05
0.00 0.00 0.00 0.00 0.00 0.00 0.00 0.01 0.00 0.00 0.00 0.01 0.01 0.02 0.02 0.01 0.01 0.01 0.02 0.02 0.02 0.02 0.02 0.02 0.03 0.03 0.04 0.04 0.04 0.03 0.03 0.03 0.03 0.04 0.04 0.04 0.03 0.04 0.05 0.05 0.06 0.07 0.06 0.06
0.00 0.01 0.01 0.00 0.00 0.00 0.01 0.00 0.00 0.00 0.00 0.02 0.04 0.02 0.01 0.01 0.01 0.01 0.01 0.02 0.02 0.03 0.03 0.03 0.03 0.03 0.04 0.04 0.05 0.05 0.04 0.03 0.03 0.03 0.03 0.02 0.02 0.03 0.05 0.07 0.07 0.06 0.05 0.05
0.00 0.01 0.01 0.00 0.00 0.00 0.00 0.00 0.00 0.00 0.00 0.01 0.01 0.01 0.01 0.01 0.01 0.01 0.01 0.02 0.03 0.02 0.03 0.03 0.04 0.05 0.05 0.06 0.07 0.07 0.07 0.06 0.05 0.04 0.03 0.03 0.03 0.04 0.04 0.05 0.05 0.05 0.04 0.04
0.01 0.01 0.00 0.01 0.00 0.00 0.00 0.00 0.00 0.00 0.01 0.01 0.01 0.01 0.02 0.02 0.01 0.01 0.01 0.02 0.02 0.02 0.03 0.03 0.04 0.06 0.07 0.07 0.08 0.08 0.09 0.07 0.06 0.05 0.04 0.04 0.05 0.07 0.09 0.10 0.09 0.06 0.04 0.02
0.01 0.02 0.01 0.01 0.01 0.00 0.00 0.00 0.00 0.00 0.01 0.01 0.02 0.02 0.02 0.03 0.02 0.02 0.02 0.02 0.03 0.03 0.03 0.03 0.04 0.04 0.05 0.06 0.07 0.07 0.07 0.07 0.06 0.05 0.05 0.05 0.08 0.11 0.10 0.07 0.05 0.04 0.03 0.02
0.03 0.05 0.04 0.02 0.01 0.00 0.00 0.00 0.01 0.01 0.01 0.01 0.02 0.02 0.02 0.02 0.02 0.02 0.02 0.02 0.02 0.02 0.02 0.03 0.05 0.05 0.05 0.06 0.06 0.08 0.09 0.09 0.10 0.10 0.11 0.10 0.10 0.08 0.05 0.04 0.04 0.03 0.02 0.02
0.01 0.02 0.02 0.01 0.01 0.00 0.00 0.00 0.01 0.01 0.01 0.03 0.03 0.04 0.03 0.02 0.02 0.01 0.02 0.02 0.02 0.02 0.02 0.03 0.05 0.10 0.10 0.06 0.05 0.06 0.07 0.10 0.12 0.13 0.15 0.14 0.11 0.10 0.09 0.07 0.05 0.04 0.03 0.03
0.00 0.01 0.01 0.01 0.00 0.00 0.00 0.00 0.01 0.01 0.02 0.02 0.03 0.03 0.02 0.02 0.02 0.02 0.02 0.02 0.02 0.02 0.02 0.02 0.04 0.07 0.11 0.08 0.06 0.06 0.05 0.07 0.09 0.12 0.13 0.11 0.10 0.09 0.10 0.13 0.10 0.07 0.05 0.04
0.00 0.01 0.01 0.01 0.01 0.01 0.00 0.01 0.02 0.03 0.03 0.03 0.02 0.03 0.03 0.02 0.02 0.02 0.03 0.03 0.02 0.03 0.03 0.03 0.04 0.04 0.04 0.05 0.06 0.06 0.05 0.06 0.08 0.11 0.14 0.13 0.11 0.10 0.11 0.12 0.14 0.12 0.07 0.05
0.01 0.01 0.02 0.02 0.03 0.03 0.02 0.02 0.04 0.04 0.04 0.03 0.03 0.02 0.02 0.02 0.02 0.02 0.02 0.02 0.03 0.04 0.05 0.06 0.06 0.05 0.05 0.07 0.09 0.10 0.11 0.11 0.11 0.10 0.12 0.13 0.12 0.12 0.15 0.19 0.14 0.12 0.08 0.05
0.02 0.03 0.04 0.05 0.04 0.04 0.04 0.05 0.05 0.04 0.04 0.05 0.05 0.03 0.02 0.03 0.03 0.03 0.03 0.03 0.04 0.04 0.05 0.06 0.08 0.09 0.09 0.10 0.11 0.13 0.16 0.15 0.15 0.14 0.13 0.12 0.11 0.10 0.10 0.12 0.12 0.10 0.09 0.07
0.04 0.05 0.06 0.06 0.04 0.03 0.04 0.05 0.03 0.03 0.04 0.06 0.07 0.05 0.04 0.04 0.05 0.04 0.04 0.04 0.04 0.04 0.05 0.06 0.07 0.09 0.09 0.08 0.08 0.10 0.13 0.15 0.16 0.15 0.14 0.13 0.12 0.11 0.09 0.09 0.08 0.08 0.08 0.07
0.02 0.03 0.04 0.04 0.04 0.03 0.04 0.04 0.03 0.04 0.04 0.05 0.06 0.06 0.06 0.09 0.07 0.06 0.05 0.05 0.05 0.06 0.07 0.07 0.05 0.06 0.06 0.05 0.05 0.07 0.08 0.10 0.11 0.10 0.09 0.10 0.10 0.09 0.07 0.06 0.06 0.06 0.06 0.07
0.03 0.03 0.03 0.04 0.04 0.04 0.06 0.06 0.05 0.05 0.04 0.06 0.07 0.06 0.08 0.08 0.06 0.06 0.06 0.06 0.07 0.07 0.07 0.07 0.06 0.07 0.07 0.06 0.05 0.05 0.06 0.06 0.07 0.07 0.06 0.06 0.06 0.05 0.05 0.04 0.04 0.04 0.05 0.05
0.04 0.04 0.04 0.04 0.05 0.05 0.06 0.06 0.06 0.06 0.05 0.07 0.11 0.12 0.12 0.10 0.08 0.08 0.07 0.08 0.08 0.07 0.07 0.08 0.08 0.07 0.06 0.05 0.05 0.05 0.05 0.05 0.04 0.03 0.03 0.03 0.03 0.03 0.03 0.03 0.04 0.05 0.05 0.05
0.06 0.05 0.04 0.04 0.05 0.04 0.04 0.05 0.06 0.06 0.06 0.08 0.08 0.09 0.10 0.10 0.09 0.09 0.09 0.11 0.10 0.09 0.09 0.10 0.09 0.06 0.04 0.04 0.04 0.05 0.06 0.05 0.04 0.03 0.03 0.03 0.04 0.04 0.04 0.04 0.04 0.03 0.03 0.04
0.07 0.05 0.04 0.05 0.04 0.04 0.04 0.06 0.06 0.06 0.06 0.07 0.07 0.07 0.08 0.09 0.09 0.10 0.12 0.11 0.09 0.08 0.08 0.10 0.08 0.06 0.04 0.04 0.05 0.05 0.06 0.05 0.04 0.03 0.03 0.03 0.03 0.03 0.04 0.04 0.04 0.03 0.02 0.01
0.08 0.08 0.09 0.08 0.06 0.06 0.07 0.08 0.08 0.07 0.06 0.06 0.06 0.06 0.07 0.08 0.08 0.09 0.08 0.07 0.05 0.04 0.05 0.07 0.06 0.05 0.04 0.03 0.03 0.03 0.04 0.04 0.03 0.03 0.02 0.02 0.03 0.03 0.03 0.03 0.03 0.03 0.02 0.01
0.11 0.13 0.14 0.12 0.10 0.12 0.13 0.11 0.11 0.10 0.07 0.05 0.04 0.05 0.06 0.07 0.06 0.06 0.05 0.04 0.04 0.03 0.03 0.04 0.03 0.03 0.02 0.01 0.02 0.02 0.02 0.02 0.02 0.02 0.01 0.01 0.02 0.02 0.02 0.01 0.01 0.01 0.01 0.01
0.13 0.14 0.13 0.11 0.10 0.16 0.17 0.13 0.11 0.11 0.08 0.05 0.04 0.04 0.04 0.04 0.04 0.05 0.05 0.05 0.04 0.04 0.03 0.03 0.02 0.02 0.01 0.01 0.01 0.02 0.02 0.02 0.01 0.01 0.01 0.02 0.01 0.01 0.01 0.01 0.01 0.01 0.01 0.02
0.08 0.09 0.09 0.08 0.07 0.10 0.12 0.10 0.08 0.08 0.06 0.05 0.05 0.04 0.04 0.04 0.04 0.04 0.04 0.05 0.06 0.05 0.05 0.05 0.05 0.04 0.03 0.03 0.02 0.02 0.02 0.02 0.02 0.03 0.03 0.03 0.02 0.02 0.02 0.02 0.02 0.02 0.03 0.04
MSLP
1006.14 1006.02 1005.91 1005.88 1005.98 1006.22 1006.57 1006.99 1007.41 1007.77 1008.01 1008.09 1008.02 1007.83 1007.57 1007.28 1007.02 1006.82 1006.71 1006.69 1006.73 1006.83 1006.96 1007.11 1007.27 1007.47 1007.72 1008.04 1008.45 1008.95 1009.51 1010.11 1010.70 1011.24 1011.67 1011.96 1012.11 1012.12 1012.02 1011.85 1011.65 1011.49 1011.40 1011.40
1006.59 1006.42 1006.21 1006.03 1005.95 1006.01 1006.21 1006.54 1006.94 1007.36 1007.75 1008.05 1008.25 1008.33 1008.31 1008.22 1008.09 1007.95 1007.82 1007.71 1007.64 1007.60 1007.59 1007.62 1007.71 1007.86 1008.08 1008.40 1008.81 1009.30 1009.85 1010.42 1010.98 1011.47 1011.85 1012.10 1012.22 1012.21 1012.09 1011.92 1011.73 1011.57 1011.48 1011.48
1007.12 1006.94 1006.67 1006.40 1006.20 1006.13 1006.22 1006.46 1006.83 1007.28 1007.75 1008.20 1008.58 1008.86 1009.03 1009.09 1009.07 1008.98 1008.85 1008.71 1008.57 1008.44 1008.36 1008.32 1008.35 1008.47 1008.67 1008.96 1009.34 1009.79 1010.29 1010.79 1011.27 1011.68 1011.99 1012.17 1012.24 1012.20 1012.07 1011.89 1011.70 1011.55 1011.46 1011.45
1007.73 1007.57 1007.31 1007.01 1006.75 1006.61 1006.61 1006.77 1007.08 1007.51 1008.01 1008.52 1008.99 1009.38 1009.66 1009.83 1009.89 1009.86 1009.75 1009.61 1009.45 1009.30 1009.19 1009.13 1009.14 1009.23 1009.40 1009.66 1009.98 1010.36 1010.76 1011.16 1011.52 1011.82 1012.03 1012.14 1012.15 1012.07 1011.93 1011.75 1011.58 1011.43 1011.35 1011.34
1008.38 1008.28 1008.07 1007.80 1007.54 1007.36 1007.30 1007.40 1007.64 1008.01 1008.46 1008.95 1009.43 1009.85 1010.18 1010.41 1010.52 1010.54 1010.48 1010.37 1010.25 1010.12 1010.03 1009.98 1010.00 1010.07 1010.21 1010.41 1010.66 1010.93 1011.21 1011.47 1011.70 1011.88 1011.98 1012.01 1011.97 1011.87 1011.73 1011.57 1011.42 1011.30 1011.23 1011.23
1009.01 1009.01 1008.87 1008.67 1008.45 1008.27 1008.19 1008.22 1008.39 1008.67 1009.04 1009.46 1009.88 1010.27 1010.59 1010.83 1010.97 1011.04 1011.04 1011.00 1010.93 1010.87 1010.83 1010.82 1010.85 1010.92 1011.03 1011.17 1011.32 1011.48 1011.62 1011.75 1011.84 1011.89 1011.90 1011.86 1011.79 1011.68 1011.56 1011.44 1011.33 1011.25 1011.21 1011.21
1009.57 1009.66 1009.63 1009.52 1009.36 1009.22 1009.13 1009.12 1009.21 1009.39 1009.66 1009.97 1010.30 1010.62 1010.90 1011.12 1011.29 1011.39 1011.45 1011.48 1011.49 1011.51 1011.53 1011.58 1011.64 1011.71 1011.79 1011.86 1011.93 1011.97 1011.99 1011.99 1011.96 1011.92 1011.85 1011.77 1011.69 1011.60 1011.52 1011.45 1011.40 1011.37 1011.37 1011.39
1010.01 1010.19 1010.26 1010.24 1010.17 1010.07 1010.00 1009.96 1009.99 1010.09 1010.25 1010.45 1010.68 1010.92 1011.14 1011.34 1011.50 1011.64 1011.75 1011.85 1011.94 1012.03 1012.12 1012.22 1012.30 1012.38 1012.43 1012.45 1012.44 1012.39 1012.31 1012.21 1012.10 1011.99 1011.89 1011.80 1011.73 1011.69 1011.67 1011.67 1011.69 1011.72 1011.76 1011.81
1010.29 1010.55 1010.71 1010.78 1010.79 1010.75 1010.71 1010.67 1010.66 1010.70 1010.77 1010.88 1011.02 1011.18 1011.34 1011.50 1011.66 1011.81 1011.96 1012.11 1012.27 1012.42 1012.56 1012.69 1012.80 1012.88 1012.90 1012.89 1012.82 1012.71 1012.57 1012.42 1012.26 1012.13 1012.03 1011.96 1011.94 1011.97 1012.02 1012.10 1012.20 1012.29 1012.37 1012.44
1010.44 1010.74 1010.97 1011.12 1011.20 1011.23 1011.22 1011.20 1011.18 1011.18 1011.20 1011.25 1011.33 1011.42 1011.54 1011.66 1011.81 1011.96 1012.13 1012.30 1012.49 1012.67 1012.84 1012.99 1013.10 1013.17 1013.18 1013.14 1013.05 1012.92 1012.76 1012.59 1012.44 1012.32 1012.25 1012.24 1012.28 1012.38 1012.51 1012.67 1012.84 1012.99 1013.11 1013.20
1010.50 1010.82 1011.09 1011.29 1011.43 1011.51 1011.55 1011.56 1011.56 1011.55 1011.56 1011.57 1011.61 1011.67 1011.75 1011.85 1011.97 1012.11 1012.26 1012.43 1012.61 1012.79 1012.95 1013.09 1013.19 1013.25 1013.25 1013.21 1013.11 1012.98 1012.84 1012.69 1012.58 1012.50 1012.49 1012.54 1012.66 1012.83 1013.04 1013.26 1013.49 1013.68 1013.84 1013.93
1010.55 1010.86 1011.14 1011.37 1011.54 1011.67 1011.76 1011.81 1011.83 1011.85 1011.86 1011.88 1011.91 1011.95 1012.00 1012.07 1012.16 1012.27 1012.39 1012.52 1012.65 1012.79 1012.91 1013.02 1013.09 1013.13 1013.13 1013.08 1013.00 1012.90 1012.79 1012.69 1012.63 1012.62 1012.67 1012.79 1012.97 1013.20 1013.46 1013.74 1014.00 1014.23 1014.40 1014.50
1010.67 1010.95 1011.22 1011.45 1011.64 1011.80 1011.92 1012.01 1012.08 1012.13 1012.17 1012.20 1012.23 1012.27 1012.30 1012.35 1012.39 1012.45 1012.51 1012.58 1012.65 1012.71 1012.77 1012.82 1012.85 1012.86 1012.84 1012.80 1012.74 1012.68 1012.62 1012.58 1012.57 1012.62 1012.73 1012.90 1013.12 1013.39 1013.69 1014.00 1014.28 1014.53 1014.71 1014.82
1010.91 1011.15 1011.39 1011.61 1011.80 1011.98 1012.13 1012.25 1012.35 1012.44 1012.51 1012.56 1012.60 1012.63 1012.65 1012.66 1012.66 1012.66 1012.64 1012.63 1012.61 1012.60 1012.58 1012.56 1012.54 1012.51 1012.47 1012.43 1012.39 1012.36 1012.34 1012.35 1012.40 1012.49 1012.64 1012.84 1013.09 1013.38 1013.69 1014.00 1014.29 1014.54 1014.73 1014.84
1011.29 1011.49 1011.69 1011.89 1012.08 1012.26 1012.42 1012.56 1012.69 1012.80 1012.89 1012.96 1013.01 1013.04 1013.04 1013.01 1012.96 1012.89 1012.80 1012.69 1012.59 1012.48 1012.38 1012.29 1012.21 1012.14 1012.08 1012.04 1012.01 1012.00 1012.01 1012.05 1012.13 1012.25 1012.41 1012.63 1012.88 1013.16 1013.47 1013.77 1014.05 1014.30 1014.49 1014.61
1011.80 1011.97 1012.14 1012.31 1012.49 1012.66 1012.82 1012.97 1013.11 1013.23 1013.33 1013.40 1013.45 1013.45 1013.43 1013.36 1013.26 1013.13 1012.96 1012.78 1012.60 1012.41 1012.24 1012.08 1011.94 1011.83 1011.75 1011.69 1011.66 1011.66 1011.69 1011.74 1011.83 1011.96 1012.12 1012.32 1012.56 1012.83 1013.11 1013.39 1013.67 1013.91 1014.10 1014.23
1012.38 1012.53 1012.69 1012.85 1013.01 1013.16 1013.31 1013.45 1013.58 1013.69 1013.78 1013.84 1013.87 1013.86 1013.80 1013.70 1013.55 1013.37 1013.14 1012.90 1012.65 1012.41 1012.17 1011.96 1011.78 1011.64 1011.53 1011.46 1011.42 1011.41 1011.43 1011.48 1011.57 1011.68 1011.83 1012.01 1012.22 1012.46 1012.72 1012.98 1013.24 1013.48 1013.67 1013.82
1012.98 1013.14 1013.29 1013.44 1013.58 1013.72 1013.84 1013.96 1014.06 1014.15 1014.22 1014.25 1014.25 1014.21 1014.13 1013.99 1013.81 1013.59 1013.33 1013.05 1012.77 1012.48 1012.21 1011.97 1011.76 1011.59 1011.46 1011.37 1011.31 1011.29 1011.29 1011.33 1011.39 1011.49 1011.61 1011.76 1011.94 1012.16 1012.39 1012.63 1012.88 1013.11 1013.30 1013.46
1013.55 1013.72 1013.88 1014.02 1014.15 1014.26 1014.36 1014.44 1014.51 1014.56 1014.59 1014.59 1014.56 1014.49 1014.37 1014.22 1014.02 1013.78 1013.52 1013.23 1012.93 1012.63 1012.35 1012.10 1011.87 1011.69 1011.54 1011.43 1011.35 1011.31 1011.29 1011.30 1011.34 1011.41 1011.50 1011.63 1011.78 1011.97 1012.18 1012.40 1012.63 1012.85 1013.05 1013.20
1014.05 1014.24 1014.40 1014.54 1014.65 1014.73 1014.80 1014.84 1014.86 1014.87 1014.85 1014.81 1014.75 1014.66 1014.53 1014.37 1014.17 1013.94 1013.68 1013.40 1013.12 1012.83 1012.56 1012.31 1012.09 1011.90 1011.74 1011.61 1011.51 1011.45 1011.40 1011.38 1011.39 1011.43 1011.50 1011.60 1011.73 1011.89 1012.08 1012.29 1012.50 1012.70 1012.88 1013.03
1014.45 1014.65 1014.81 1014.94 1015.03 1015.08 1015.11 1015.10 1015.08 1015.04 1014.98 1014.91 1014.82 1014.71 1014.58 1014.42 1014.24 1014.03 1013.80 1013.56 1013.30 1013.05 1012.80 1012.57 1012.35 1012.16 1011.99 1011.85 1011.73 1011.64 1011.57 1011.52 1011.50 1011.51 1011.56 1011.63 1011.74 1011.88 1012.05 1012.23 1012.41 1012.59 1012.75 1012.87
1014.74 1014.94 1015.10 1015.20 1015.26 1015.27 1015.25 1015.20 1015.13 1015.05 1014.96 1014.86 1014.76 1014.65 1014.52 1014.38 1014.22 1014.05 1013.86 1013.66 1013.44 1013.22 1013.01 1012.79 1012.59 1012.40 1012.23 1012.07 1011.93 1011.81 1011.71 1011.64 1011.59 1011.58 1011.60 1011.65 1011.74 1011.86 1012.00 1012.15 1012.30 1012.45 1012.56 1012.64
1014.94 1015.12 1015.24 1015.30 1015.32 1015.29 1015.22 1015.13 1015.02 1014.91 1014.79 1014.68 1014.57 1014.46 1014.35 1014.23 1014.11 1013.97 1013.83 1013.67 1013.49 1013.31 1013.12 1012.93 1012.73 1012.55 1012.36 1012.19 1012.03 1011.89 1011.77 1011.67 1011.60 1011.56 1011.56 1011.59 1011.65 1011.74 1011.85 1011.97 1012.09 1012.19 1012.26 1012.29
1015.02 1015.16 1015.23 1015.24 1015.21 1015.12 1015.01 1014.88 1014.74 1014.61 1014.48 1014.36 1014.25 1014.15 1014.07 1013.98 1013.89 1013.79 1013.68 1013.55 1013.41 1013.25 1013.09 1012.91 1012.72 1012.53 1012.34 1012.16 1011.98 1011.82 1011.68 1011.56 1011.47 1011.41 1011.39 1011.40 1011.44 1011.50 1011.58 1011.66 1011.73 1011.79 1011.81 1011.80
1014.99 1015.06 1015.07 1015.02 1014.93 1014.80 1014.64 1014.48 1014.32 1014.17 1014.04 1013.92 1013.83 1013.75 1013.68 1013.61 1013.55 1013.47 1013.39 1013.28 1013.16 1013.02 1012.86 1012.69 1012.51 1012.32 1012.12 1011.93 1011.74 1011.57 1011.42 1011.29 1011.19 1011.12 1011.08 1011.08 1011.09 1011.13 1011.18 1011.22 1011.25 1011.26 1011.24 1011.18
1014.83 1014.82 1014.76 1014.65 1014.50 1014.33 1014.14 1013.96 1013.79 1013.63 1013.50 1013.40 1013.32 1013.25 1013.20 1013.15 1013.10 1013.04 1012.96 1012.86 1012.75 1012.61 1012.45 1012.28 1012.09 1011.90 1011.70 1011.51 1011.33 1011.16 1011.01 1010.88 1010.78 1010.72 1010.68 1010.67 1010.67 1010.69 1010.72 1010.73 1010.73 1010.70 1010.63 1010.53
1014.52 1014.44 1014.32 1014.15 1013.96 1013.75 1013.55 1013.36 1013.18 1013.03 1012.92 1012.82 1012.75 1012.70 1012.65 1012.61 1012.56 1012.49 1012.41 1012.31 1012.19 1012.04 1011.88 1011.70 1011.52 1011.33 1011.14 1010.96 1010.79 1010.64 1010.51 1010.41 1010.33 1010.28 1010.25 1010.25 1010.26 1010.27 1010.28 1010.28 1010.25 1010.19 1010.09 1009.96
Thickness
5800 5814 5817 5815 5817 5821 5817 5816 5809 5813 5812 5815 5820 5823 5823 5824 5823 5819 5816 5818 5818 5816 5815 5815 5813 5811 5809 5806 5804 5802 5796 5791 5787 5785 5782 5779 5775 5771 5768 5765 5761 5758 5754 5751
5784 5804 5809 5806 5815 5817 5816 5819 5817 5815 5808 5822 5823 5820 5817 5816 5813 5808 5807 5809 5809 5809 5807 5806 5805 5804 5803 5800 5798 5796 5791 5787 5785 5781 5777 5774 5771 5768 5763 5760 5757 5754 5750 5746
5766 5790 5794 5784 5804 5810 5811 5815 5811 5801 5804 5813 5808 5805 5804 5807 5806 5802 5801 5802 5801 5801 5801 5799 5797 5797 5794 5795 5793 5789 5785 5782 5780 5776 5771 5769 5767 5763 5759 5755 5752 5749 5745 5742
5760 5764 5749 5785 5815 5816 5808 5807 5811 5807 5806 5805 5801 5801 5802 5803 5799 5795 5793 5794 5795 5795 5795 5795 5794 5791 5788 5788 5785 5782 5778 5776 5774 5770 5766 5763 5760 5756 5754 5751 5747 5743 5740 5737
5750 5749 5759 5782 5795 5801 5793 5789 5802 5798 5797 5798 5797 5792 5788 5792 5792 5789 5789 5789 5789 5791 5791 5789 5787 5785 5781 5779 5777 5775 5772 5770 5769 5766 5761 5758 5754 5751 5748 5745 5742 5739 5736 5732
5741 5735 5738 5759 5785 5798 5787 5768 5787 5788 5783 5781 5780 5765 5765 5777 5780 5781 5782 5782 5782 5784 5784 5781 5780 5778 5774 5771 5769 5767 5766 5765 5763 5761 5757 5753 5749 5746 5743 5740 5736 5733 5729 5727
5730 5730 5743 5759 5776 5781 5750 5744 5771 5775 5771 5769 5762 5759 5763 5769 5771 5771 5771 5773 5774 5774 5772 5772 5772 5770 5766 5764 5762 5762 5762 5760 5758 5755 5751 5748 5744 5740 5737 5733 5729 5725 5722 5719
5725 5720 5721 5749 5756 5744 5740 5755 5760 5761 5760 5756 5755 5755 5755 5756 5758 5759 5760 5760 5762 5761 5761 5763 5763 5761 5757 5755 5757 5756 5754 5752 5750 5748 5744 5741 5737 5733 5730 5727 5722 5718 5715 5712
5718 5715 5727 5739 5738 5741 5747 5744 5747 5749 5748 5747 5743 5742 5743 5743 5744 5746 5747 5748 5749 5749 5749 5752 5753 5752 5748 5748 5749 5747 5745 5743 5741 5740 5736 5733 5729 5725 5722 5719 5717 5714 5710 5707
5708 5715 5722 5727 5730 5731 5734 5734 5737 5738 5736 5735 5731 5731 5730 5730 5731 5732 5734 5735 5737 5737 5736 5737 5740 5741 5741 5741 5741 5738 5735 5733 5731 5729 5725 5723 5721 5718 5715 5712 5710 5708 5705 5702
5696 5701 5707 5710 5714 5718 5721 5723 5724 5724 5723 5721 5720 5718 5718 5717 5718 5719 5721 5722 5723 5723 5723 5725 5728 5729 5731 5731 5730 5727 5725 5723 5721 5719 5716 5713 5709 5706 5705 5702 5701 5699 5697 5695
5681 5689 5690 5692 5702 5706 5707 5708 5710 5709 5709 5710 5709 5707 5707 5706 5707 5707 5708 5710 5710 5711 5711 5713 5715 5717 5719 5719 5719 5716 5713 5712 5711 5709 5706 5703 5698 5692 5690 5690 5688 5686 5683 5680
5681 5685 5685 5688 5692 5694 5694 5697 5699 5698 5697 5697 5698 5698 5696 5695 5696 5696 5697 5698 5698 5699 5699 5701 5703 5705 5707 5708 5708 5706 5704 5703 5702 5700 5696 5693 5689 5684 5680 5676 5675 5674 5672 5669
5676 5674 5672 5676 5678 5683 5685 5686 5687 5688 5688 5688 5687 5686 5685 5685 5685 5685 5685 5687 5688 5688 5688 5690 5691 5693 5695 5696 5696 5695 5695 5695 5693 5691 5688 5685 5682 5679 5676 5672 5668 5665 5661 5658
5665 5666 5666 5668 5670 5672 5674 5674 5673 5673 5674 5674 5675 5674 5674 5673 5674 5674 5676 5677 5677 5676 5677 5678 5679 5681 5684 5686 5685 5684 5684 5684 5683 5681 5678 5676 5673 5672 5670 5666 5662 5658 5653 5647
5654 5656 5657 5656 5657 5660 5660 5661 5660 5661 5662 5662 5662 5663 5665 5665 5665 5665 5665 5665 5665 5664 5665 5667 5668 5671 5674 5675 5674 5673 5673 5672 5671 5670 5668 5665 5663 5663 5660 5656 5652 5648 5646 5641
5642 5642 5643 5644 5646 5648 5649 5649 5649 5650 5651 5651 5651 5653 5655 5655 5654 5654 5655 5656 5656 5657 5658 5658 5659 5662 5663 5664 5663 5663 5663 5662 5660 5659 5657 5654 5653 5651 5649 5645 5642 5638 5636 5632
5638 5638 5638 5637 5638 5638 5639 5640 5642 5642 5641 5642 5643 5643 5643 5643 5644 5645 5646 5647 5647 5648 5650 5651 5652 5651 5652 5653 5653 5653 5652 5652 5650 5648 5646 5644 5642 5640 5637 5634 5631 5628 5624 5621
5632 5632 5631 5631 5632 5631 5631 5631 5633 5634 5634 5634 5633 5633 5633 5635 5636 5637 5638 5637 5637 5638 5640 5642 5641 5643 5643 5643 5643 5643 5643 5643 5641 5639 5637 5633 5631 5629 5626 5624 5621 5617 5614 5611
5624 5624 5623 5623 5623 5623 5622 5623 5623 5624 5625 5625 5625 5625 5626 5627 5629 5630 5630 5629 5629 5630 5631 5632 5633 5634 5634 5634 5633 5635 5634 5633 5631 5629 5626 5623 5621 5618 5616 5614 5611 5607 5605 5603
5615 5615 5613 5613 5613 5613 5614 5614 5615 5615 5616 5617 5617 5618 5619 5620 5621 5621 5621 5620 5620 5621 5622 5622 5624 5624 5624 5623 5623 5625 5624 5623 5621 5618 5615 5613 5611 5609 5606 5604 5601 5599 5596 5593
5607 5607 5606 5606 5605 5605 5606 5607 5607 5608 5609 5610 5612 5614 5614 5614 5614 5613 5613 5611 5612 5611 5613 5614 5615 5614 5613 5613 5615 5615 5615 5613 5611 5609 5607 5605 5602 5599 5596 5594 5592 5590 5587 5584
5602 5601 5601 5600 5599 5599 5599 5600 5602 5603 5603 5604 5605 5606 5607 5607 5607 5606 5604 5603 5604 5602 5604 5605 5603 5603 5603 5605 5606 5606 5605 5603 5602 5600 5599 5597 5594 5591 5588 5585 5583 5580 5577 5574
5596 5595 5595 5595 5594 5594 5594 5595 5596 5597 5598 5599 5599 5600 5600 5600 5600 5600 5599 5596 5595 5595 5596 5594 5594 5594 5595 5597 5597 5596 5595 5593 5593 5592 5590 5588 5586 5583 5580 5577 5574 5571 5568 5565
5591 5590 5589 5588 5589 5590 5591 5592 5592 5592 5593 5594 5595 5595 5596 5596 5595 5594 5593 5591 5589 5589 5590 5588 5587 5587 5588 5589 5589 5587 5586 5585 5584 5583 5582 5579 5577 5575 5571 5569 5566 5562 5559 5556
5587 5587 5586 5586 5586 5587 5589 5589 5588 5588 5589 5590 5591 5592 5592 5592 5592 5590 5588 5587 5586 5584 5585 5584 5584 5583 5583 5582 5582 5581 5580 5578 5577 5576 5574 5571 5568 5566 5563 5560 5557 5554 5551 5547
5586 5586 5585 5585 5586 5587 5587 5587 5586 5586 5587 5587 5587 5588 5588 5588 5587 5586 5585 5584 5583 5582 5581 5580 5580 5579 5579 5578 5577 5575 5574 5572 5570 5568 5566 5563 5560 5557 5555 5552 5549 5546 5543 5539